IZ3ZOD-13 Weather Reports


Display with metric or nautical units.
time (UTC)temp
F
wind
direction
speed
MPH
gust
MPH
rain 1hr
in
rain 24hr
in
rain mn
in
humidity
%
barometer
mb
20260510145203 63 66 4.0 9.0 0.06 0.07 0.07 91 1012.8
20260510144803 63 63 3.0 7.0 0.06 0.07 0.07 90 1012.7
20260510144403 63 62 4.0 7.0 0.05 0.06 0.06 90 1012.6
20260510144003 64 56 4.0 6.0 0.04 0.05 0.05 89 1012.7
20260510143603 64 60 4.0 7.0 0.02 0.03 0.03 88 1012.6
20260510143203 64 61 4.0 7.0 0.00 0.01 0.01 88 1012.7
20260510142803 64 60 4.0 7.0 0.00 0.01 0.01 88 1012.7
20260510142613 64 63 4.0 8.0 0.00 0.01 0.01 88 1012.6
20260510142213 64 60 4.0 8.0 0.00 0.01 0.01 88 1012.8
20260510141603 64 55 4.0 6.0 0.00 0.01 0.01 88 1012.7
20260510141203 64 58 4.0 6.0 0.00 0.01 0.01 88 1012.7
20260510141016 64 59 4.0 6.0 0.00 0.01 0.01 88 1012.8
20260510140615 64 62 4.0 8.0 0.00 0.01 0.01 88 1012.7
20260510140004 64 59 4.0 8.0 0.00 0.01 0.01 87 1012.7
20260510135814 64 53 4.0 7.0 0.00 0.01 0.01 87 1012.7
20260510135203 64 66 4.0 8.0 0.00 0.01 0.01 86 1012.8
20260510134803 64 68 4.0 8.0 0.00 0.01 0.01 85 1012.8
20260510134403 64 75 4.0 8.0 0.00 0.01 0.01 85 1012.8
20260510134003 64 75 5.0 9.0 0.00 0.01 0.01 84 1012.9
20260510133603 64 73 5.0 9.0 0.00 0.01 0.01 84 1013.1
20260510133203 65 76 4.0 7.0 0.01 0.01 0.01 84 1013.0
20260510132803 65 78 5.0 11.0 0.01 0.01 0.01 83 1012.9
20260510132403 65 74 6.0 11.0 0.01 0.01 0.01 83 1012.9
20260510132003 65 64 5.0 10.0 0.01 0.01 0.01 82 1012.9
20260510131813 65 61 5.0 10.0 0.01 0.01 0.01 81 1013.0
20260510131203 65 67 4.0 8.0 0.01 0.01 0.01 81 1013.0
20260510130803 65 67 4.0 8.0 0.01 0.01 0.01 80 1013.0
20260510130616 65 61 4.0 8.0 0.01 0.01 0.01 79 1013.1
20260510130003 65 63 3.0 6.0 0.01 0.01 0.01 80 1013.2
20260510125603 65 74 3.0 6.0 0.01 0.01 0.01 81 1013.2
20260510125203 64 78 4.0 6.0 0.01 0.01 0.01 80 1013.2
20260510124803 64 73 4.0 6.0 0.01 0.01 0.01 79 1013.1
20260510124403 64 67 4.0 8.0 0.01 0.01 0.01 79 1013.3
20260510124217 64 63 4.0 8.0 0.01 0.01 0.01 79 1013.3
20260510123603 65 60 3.0 8.0 0.01 0.01 0.01 77 1013.3
20260510123203 65 68 3.0 6.0 0.00 0.00 0.00 77 1013.2
20260510122803 65 71 3.0 5.0 0.00 0.00 0.00 77 1013.4
20260510122615 65 73 4.0 7.0 0.00 0.00 0.00 75 1013.5
20260510122003 66 66 4.0 7.0 0.00 0.00 0.00 73 1013.5
20260510121603 66 59 4.0 6.0 0.00 0.00 0.00 71 1013.4
20260510121203 66 56 4.0 5.0 0.00 0.00 0.00 70 1013.4
20260510120803 66 60 4.0 7.0 0.00 0.00 0.00 68 1013.4
20260510120403 66 60 4.0 7.0 0.00 0.00 0.00 69 1013.3
20260510120003 66 48 4.0 5.0 0.00 0.00 0.00 69 1013.3
20260510115603 66 51 4.0 6.0 0.00 0.00 0.00 69 1013.4
20260510115203 66 53 5.0 9.0 0.00 0.00 0.00 69 1013.3
20260510115014 66 54 5.0 9.0 0.00 0.00 0.00 69 1013.3
20260510114403 67 53 4.0 9.0 0.00 0.00 0.00 68 1013.3
20260510114213 67 52 4.0 6.0 0.00 0.00 0.00 69 1013.5
20260510113603 67 54 4.0 7.0 0.00 0.00 0.00 69 1013.3
20260510113203 67 55 4.0 7.0 0.00 0.00 0.00 69 1013.3
20260510112803 67 63 4.0 6.0 0.00 0.00 0.00 67 1013.4
20260510112403 67 61 4.0 6.0 0.00 0.00 0.00 66 1013.4
20260510112003 67 62 3.0 5.0 0.00 0.00 0.00 66 1013.7
20260510111814 67 59 4.0 5.0 0.00 0.00 0.00 67 1013.6
20260510111203 67 51 4.0 6.0 0.00 0.00 0.00 68 1013.6
20260510111013 67 55 4.0 8.0 0.00 0.00 0.00 67 1013.7
20260510110617 67 61 4.0 8.0 0.00 0.00 0.00 69 1013.7
20260510110003 67 59 4.0 7.0 0.00 0.00 0.00 67 1013.6
20260510105816 67 55 3.0 7.0 0.00 0.00 0.00 67 1013.8
20260510105203 67 51 2.0 4.0 0.00 0.00 0.00 69 1013.7
20260510104803 67 51 2.0 4.0 0.00 0.00 0.00 70 1013.9
20260510104403 67 44 3.0 4.0 0.00 0.00 0.00 70 1013.8
20260510104003 67 45 4.0 6.0 0.00 0.00 0.00 69 1013.8
20260510103603 67 45 4.0 8.0 0.00 0.00 0.00 69 1014.0
20260510103417 67 47 4.0 8.0 0.00 0.00 0.00 69 1013.8
20260510102803 67 54 3.0 4.0 0.00 0.00 0.00 70 1014.0
20260510102403 67 55 3.0 7.0 0.00 0.00 0.00 71 1013.9
20260510102003 67 54 3.0 7.0 0.00 0.00 0.00 70 1014.0
20260510101603 67 58 3.0 7.0 0.00 0.00 0.00 70 1013.9
20260510101203 67 45 3.0 5.0 0.00 0.00 0.00 72 1013.9
20260510100803 67 31 3.0 6.0 0.00 0.00 0.00 73 1014.0
20260510100403 66 14 4.0 6.0 0.00 0.00 0.00 73 1014.2
20260510095816 66 17 3.0 6.0 0.00 0.00 0.00 73 1013.9
20260510095203 66 35 3.0 4.0 0.00 0.00 0.00 73 1014.1
20260510094803 66 37 3.0 4.0 0.00 0.00 0.00 73 1014.3
20260510094403 66 41 2.0 4.0 0.00 0.00 0.00 73 1014.2
20260510094214 66 48 2.0 3.0 0.00 0.00 0.00 74 1014.3
20260510093603 66 73 1.0 3.0 0.00 0.00 0.00 75 1014.4
20260510093203 66 68 2.0 4.0 0.00 0.00 0.00 74 1014.4
20260510092803 66 52 2.0 4.0 0.00 0.00 0.00 73 1014.3
20260510092616 66 46 3.0 4.0 0.00 0.00 0.00 73 1014.5
20260510092003 66 48 3.0 4.0 0.00 0.00 0.00 72 1014.2
20260510091603 66 59 3.0 4.0 0.00 0.00 0.00 74 1014.2
20260510091203 66 38 3.0 4.0 0.00 0.00 0.00 77 1014.2
20260510090803 66 26 3.0 4.0 0.00 0.00 0.00 76 1014.3
20260510090403 66 8 3.0 6.0 0.00 0.00 0.00 80 1014.1
20260510090212 66 9 2.0 6.0 0.00 0.00 0.00 80 1014.3
20260510085603 66 32 2.0 3.0 0.00 0.00 0.00 82 1014.2
20260510085203 66 45 2.0 3.0 0.00 0.00 0.00 81 1014.3
20260510084803 65 44 3.0 4.0 0.00 0.00 0.00 81 1014.1
20260510084403 65 37 3.0 6.0 0.00 0.00 0.00 82 1014.3
20260510084003 65 45 3.0 6.0 0.00 0.00 0.00 83 1014.2
20260510083603 65 60 2.0 4.0 0.00 0.00 0.00 83 1014.3
20260510083413 65 62 2.0 4.0 0.00 0.00 0.00 83 1014.5
20260510082803 65 61 3.0 4.0 0.00 0.00 0.00 82 1014.3
20260510082403 65 53 3.0 6.0 0.00 0.00 0.00 82 1014.3
20260510082003 65 55 3.0 6.0 0.00 0.00 0.00 82 1014.2
20260510081603 65 50 3.0 6.0 0.00 0.00 0.00 82 1014.2
20260510081203 65 45 4.0 8.0 0.00 0.00 0.00 83 1014.3
20260510080803 65 43 4.0 8.0 0.00 0.00 0.00 82 1014.3
20260510080403 65 39 3.0 6.0 0.00 0.00 0.00 82 1014.2
20260510080003 65 34 3.0 6.0 0.00 0.00 0.00 82 1014.1
20260510075603 65 32 3.0 4.0 0.00 0.00 0.00 83 1014.0
20260510075203 65 30 3.0 6.0 0.00 0.00 0.00 83 1014.1
20260510074803 64 26 3.0 6.0 0.00 0.00 0.00 83 1014.2
20260510074403 64 32 3.0 6.0 0.00 0.00 0.00 83 1014.1
20260510074003 64 27 4.0 7.0 0.00 0.00 0.00 83 1014.1
20260510073603 64 32 4.0 7.0 0.00 0.00 0.00 83 1014.2
20260510073203 64 27 4.0 7.0 0.00 0.00 0.00 83 1014.1
20260510073013 64 19 4.0 6.0 0.00 0.00 0.00 85 1014.1
20260510072617 64 7 4.0 5.0 0.00 0.00 0.00 84 1014.1
20260510072003 64 7 3.0 6.0 0.00 0.00 0.00 84 1014.2
20260510071603 63 8 3.0 6.0 0.00 0.00 0.00 84 1014.2
20260510071415 63 6 3.0 4.0 0.00 0.00 0.00 84 1014.1
20260510070803 63 4 3.0 6.0 0.00 0.00 0.00 85 1014.1
20260510070403 63 5 3.0 6.0 0.00 0.00 0.00 85 1014.2
20260510070004 63 10 3.0 4.0 0.00 0.00 0.00 85 1014.1
20260510065603 63 8 3.0 4.0 0.00 0.00 0.00 85 1014.1
20260510065203 63 12 2.0 4.0 0.00 0.00 0.00 85 1014.1
20260510064803 62 9 2.0 4.0 0.00 0.00 0.00 84 1014.1
20260510064403 62 3 2.0 3.0 0.00 0.00 0.00 85 1014.1
20260510064003 62 360 2.0 3.0 0.00 0.00 0.00 85 1014.1
20260510063603 62 359 1.0 3.0 0.00 0.00 0.00 84 1014.1
20260510063203 62 6 0.0 3.0 0.00 0.00 0.00 84 1014.5
20260510062803 62 0 0.0 0.0 0.00 0.00 0.00 84 1014.4
20260510062403 62 0 0.0 0.0 0.00 0.00 0.00 85 1014.5
20260510062003 62 0 0.0 0.0 0.00 0.00 0.00 85 1014.4
20260510061603 61 22 0.0 1.0 0.00 0.00 0.00 86 1014.2
20260510061203 61 22 1.0 2.0 0.00 0.00 0.00 85 1014.3
20260510060803 61 22 1.0 2.0 0.00 0.00 0.00 85 1014.5
20260510060403 61 22 0.0 2.0 0.00 0.00 0.00 85 1014.3
20260510060214 61 22 0.0 1.0 0.00 0.00 0.00 84 1014.4
20260510055603 61 20 0.0 1.0 0.00 0.00 0.00 85 1014.3
20260510055203 61 20 0.0 1.0 0.00 0.00 0.00 84 1014.4
20260510054803 61 20 0.0 1.0 0.00 0.00 0.00 85 1014.5
20260510054403 61 20 0.0 1.0 0.00 0.00 0.00 85 1014.4
20260510054003 61 20 0.0 1.0 0.00 0.00 0.00 84 1014.3
20260510053603 61 21 0.0 1.0 0.00 0.00 0.00 84 1014.3
20260510053203 61 0 0.0 0.0 0.00 0.00 0.00 84 1014.2
20260510052803 60 21 0.0 1.0 0.00 0.00 0.00 84 1014.2
20260510052403 60 21 0.0 1.0 0.00 0.00 0.00 84 1014.0
20260510052003 60 21 0.0 1.0 0.00 0.00 0.00 84 1014.2
20260510051603 60 6 1.0 2.0 0.00 0.00 0.00 84 1014.0
20260510051417 60 2 1.0 3.0 0.00 0.00 0.00 85 1014.2
20260510050803 60 359 1.0 3.0 0.00 0.00 0.00 84 1014.0
20260510050403 60 4 1.0 4.0 0.00 0.00 0.00 84 1014.1
20260510050004 59 5 1.0 4.0 0.00 0.00 0.00 85 1014.0
20260510045603 59 3 2.0 4.0 0.00 0.00 0.00 85 1014.0
20260510045414 59 4 2.0 3.0 0.00 0.00 0.00 85 1014.1
20260510044803 58 8 2.0 4.0 0.00 0.00 0.00 85 1014.1
20260510044618 58 10 2.0 4.0 0.00 0.00 0.00 85 1014.1
20260510044003 58 5 2.0 4.0 0.00 0.00 0.00 85 1014.0
20260510043603 58 2 2.0 3.0 0.00 0.00 0.00 85 1014.0
20260510043203 58 360 2.0 3.0 0.00 0.00 0.00 85 1014.1
20260510042803 58 360 2.0 4.0 0.00 0.00 0.00 85 1014.2
20260510042403 58 359 2.0 4.0 0.00 0.00 0.00 85 1014.1
20260510042003 58 2 2.0 4.0 0.00 0.00 0.00 84 1014.1
20260510041603 58 7 2.0 3.0 0.00 0.00 0.00 84 1014.1
20260510041412 58 9 1.0 3.0 0.00 0.00 0.00 85 1014.0
20260510040803 58 14 1.0 3.0 0.00 0.00 0.00 86 1014.3
20260510040616 58 11 1.0 3.0 0.00 0.00 0.00 86 1014.2
20260510040003 58 7 2.0 3.0 0.00 0.00 0.00 87 1014.4
20260510035603 57 5 2.0 3.0 0.00 0.00 0.00 87 1014.2
20260510035203 57 5 1.0 3.0 0.00 0.00 0.00 89 1014.3
20260510034803 57 1 0.0 2.0 0.00 0.00 0.00 90 1014.3
20260510034613 57 1 0.0 1.0 0.00 0.00 0.00 90 1014.4
20260510034003 57 2 1.0 2.0 0.00 0.00 0.00 90 1014.3
20260510033817 57 3 1.0 2.0 0.00 0.00 0.00 90 1014.3
20260510033203 57 7 1.0 2.0 0.00 0.00 0.00 90 1014.3
20260510032803 57 8 0.0 2.0 0.00 0.00 0.00 91 1014.3
20260510032403 56 0 0.0 0.0 0.00 0.00 0.00 91 1014.5
20260510032003 56 0 0.0 0.0 0.00 0.00 0.00 90 1014.4
20260510031603 56 8 0.0 2.0 0.00 0.00 0.00 90 1014.4
20260510031203 56 8 0.0 2.0 0.00 0.00 0.00 90 1014.5
20260510030803 56 8 0.0 2.0 0.00 0.00 0.00 90 1014.5
20260510030403 56 8 0.0 2.0 0.00 0.00 0.00 90 1014.6
20260510030003 56 8 1.0 2.0 0.00 0.00 0.00 90 1014.4
20260510025603 55 8 1.0 2.0 0.00 0.00 0.00 90 1014.5
20260510025203 55 2 1.0 3.0 0.00 0.00 0.00 90 1014.6
20260510025014 55 1 1.0 3.0 0.00 0.00 0.00 90 1014.6
20260510024403 55 347 0.0 3.0 0.00 0.00 0.00 90 1014.7
20260510024213 55 0 0.0 0.0 0.00 0.00 0.00 90 1014.6
20260510023812 55 0 0.0 0.0 0.00 0.00 0.00 90 1014.6
20260510023203 55 0 0.0 0.0 0.00 0.00 0.00 90 1014.8
20260510022803 55 0 0.0 0.0 0.00 0.00 0.00 90 1014.8
20260510022403 55 0 0.0 0.0 0.00 0.00 0.00 89 1014.8
20260510022003 55 0 0.0 0.0 0.00 0.00 0.00 89 1014.9
20260510021603 55 0 0.0 0.0 0.00 0.00 0.00 89 1015.1
20260510021203 55 329 0.0 1.0 0.00 0.00 0.00 88 1014.9
20260510020803 55 329 0.0 1.0 0.00 0.00 0.00 88 1015.1
20260510020403 56 329 0.0 1.0 0.00 0.00 0.00 88 1015.0
20260510020217 56 0 0.0 0.0 0.00 0.00 0.00 88 1014.9
20260510015603 56 0 0.0 0.0 0.00 0.00 0.00 88 1015.1
20260510015203 56 0 0.0 0.0 0.00 0.00 0.00 88 1015.1
20260510015015 56 0 0.0 0.0 0.00 0.00 0.00 88 1015.1
20260510014403 56 0 0.0 0.0 0.00 0.00 0.00 88 1015.1
20260510014003 56 0 0.0 0.0 0.00 0.00 0.00 88 1015.2
20260510013603 56 0 0.0 0.0 0.00 0.00 0.00 87 1015.0
20260510013203 57 0 0.0 0.0 0.00 0.00 0.00 87 1015.2
20260510012803 57 0 0.0 0.0 0.00 0.00 0.00 87 1015.3
20260510012403 57 0 0.0 0.0 0.00 0.00 0.00 86 1015.2
20260510012003 57 0 0.0 0.0 0.00 0.00 0.00 85 1015.1
20260510011815 57 0 0.0 0.0 0.00 0.00 0.00 85 1015.1
20260510011203 58 0 0.0 0.0 0.00 0.00 0.00 85 1015.3
20260510011014 58 0 0.0 0.0 0.00 0.00 0.00 85 1015.2
20260510010403 58 0 0.0 0.0 0.00 0.00 0.00 85 1015.3
20260510010004 58 1 0.0 1.0 0.00 0.00 0.00 84 1015.4
20260510005603 58 1 0.0 1.0 0.00 0.00 0.00 84 1015.4
20260510005203 58 7 0.0 1.0 0.00 0.00 0.00 85 1015.1
20260510004803 58 11 1.0 3.0 0.00 0.00 0.00 85 1015.1
20260510004403 58 14 1.0 3.0 0.00 0.00 0.00 85 1015.2
20260510004003 58 16 1.0 3.0 0.00 0.00 0.00 85 1015.2
20260510003603 57 22 0.0 2.0 0.00 0.00 0.00 85 1015.2
20260510003203 57 0 0.0 0.0 0.00 0.00 0.00 85 1015.3
20260510002803 58 0 0.0 0.0 0.00 0.00 0.00 85 1015.3
20260510002403 57 0 0.0 0.0 0.00 0.00 0.00 85 1015.3
20260510002003 57 0 0.0 0.0 0.00 0.00 0.00 85 1015.4
20260510001603 57 0 0.0 0.0 0.00 0.00 0.00 85 1015.5
20260510001415 57 0 0.0 0.0 0.00 0.00 0.00 84 1015.5
20260510001014 58 0 0.0 0.0 0.00 0.00 0.00 84 1015.5
20260510000403 58 0 0.0 0.0 0.00 0.00 0.00 85 1015.4
20260510000004 58 0 0.0 0.0 0.00 0.00 0.00 84 1015.4
20260509235603 58 0 0.0 0.0 0.00 0.00 0.00 83 1015.5
20260509235203 58 0 0.0 0.0 0.00 0.00 0.00 83 1015.5
20260509235016 58 0 0.0 0.0 0.00 0.00 0.00 83 1015.5
20260509234616 58 0 0.0 0.0 0.00 0.00 0.00 83 1015.7
20260509234003 58 0 0.0 0.0 0.00 0.00 0.00 82 1015.8
20260509233603 58 0 0.0 0.0 0.00 0.00 0.00 82 1015.5
20260509233203 59 0 0.0 0.0 0.00 0.00 0.00 82 1015.6
20260509232803 58 0 0.0 0.0 0.00 0.00 0.00 83 1015.8
20260509232612 58 0 0.0 0.0 0.00 0.00 0.00 83 1015.6
20260509232003 59 0 0.0 0.0 0.00 0.00 0.00 82 1015.8
20260509231603 59 0 0.0 0.0 0.00 0.00 0.00 83 1015.9
20260509231203 59 0 0.0 0.0 0.00 0.00 0.00 83 1015.8
20260509230803 58 0 0.0 0.0 0.00 0.00 0.00 83 1015.7
20260509230403 59 0 0.0 0.0 0.00 0.00 0.00 83 1015.9
20260509230214 59 0 0.0 0.0 0.00 0.00 0.00 83 1015.8
20260509225603 58 0 0.0 0.0 0.00 0.00 0.00 83 1015.9
20260509225203 58 0 0.0 0.0 0.00 0.00 0.00 83 1015.8
20260509224803 59 0 0.0 0.0 0.00 0.00 0.00 83 1015.8
20260509224403 59 0 0.0 0.0 0.00 0.00 0.00 82 1015.8
20260509224216 59 0 0.0 0.0 0.00 0.00 0.00 82 1015.9
20260509223603 59 0 0.0 0.0 0.00 0.00 0.00 82 1015.9
20260509223203 59 0 0.0 0.0 0.00 0.00 0.00 81 1016.0
20260509222803 60 0 0.0 0.0 0.00 0.00 0.00 80 1015.9
20260509222403 60 0 0.0 0.0 0.00 0.00 0.00 80 1015.9
20260509222217 60 0 0.0 0.0 0.00 0.00 0.00 80 1015.8
20260509221603 60 0 0.0 0.0 0.00 0.00 0.00 79 1015.7
20260509221203 60 0 0.0 0.0 0.00 0.00 0.00 79 1015.9
20260509220803 60 0 0.0 0.0 0.00 0.00 0.00 78 1015.6
20260509220403 61 0 0.0 0.0 0.00 0.00 0.00 77 1015.7
20260509220004 60 0 0.0 0.0 0.00 0.00 0.00 78 1015.7
20260509215603 61 0 0.0 0.0 0.00 0.00 0.00 77 1015.9
20260509215203 61 24 0.0 1.0 0.00 0.00 0.00 77 1015.7
20260509215012 61 24 0.0 1.0 0.00 0.00 0.00 76 1015.8
20260509214403 61 22 1.0 2.0 0.00 0.00 0.00 77 1015.8
20260509214216 61 22 1.0 2.0 0.00 0.00 0.00 77 1015.7
20260509213603 61 12 1.0 2.0 0.00 0.00 0.00 76 1015.8
20260509213415 61 2 1.0 3.0 0.00 0.00 0.00 76 1015.8
20260509212803 62 7 2.0 4.0 0.00 0.00 0.00 75 1015.7
20260509212614 62 8 2.0 4.0 0.00 0.00 0.00 75 1015.8
20260509212003 62 48 0.0 2.0 0.00 0.00 0.00 74 1016.0
20260509211603 62 67 0.0 2.0 0.00 0.00 0.00 73 1015.8
20260509211203 61 56 1.0 3.0 0.00 0.00 0.00 74 1015.9
20260509210803 60 43 2.0 4.0 0.00 0.00 0.00 77 1015.8
20260509210403 60 37 2.0 4.0 0.00 0.00 0.00 77 1015.8
20260509210003 62 28 1.0 4.0 0.00 0.00 0.00 74 1015.8
20260509205603 63 0 0.0 0.0 0.00 0.00 0.00 70 1015.5
20260509205203 63 0 0.0 0.0 0.00 0.00 0.00 69 1015.6
20260509205013 63 0 0.0 0.0 0.00 0.00 0.00 68 1015.5
20260509204403 64 200 0.0 1.0 0.00 0.00 0.00 67 1015.7
20260509204003 64 200 1.0 2.0 0.00 0.00 0.00 66 1015.6
20260509203603 64 201 1.0 2.0 0.00 0.00 0.00 66 1015.7
20260509203203 64 203 2.0 3.0 0.00 0.00 0.00 66 1015.5
20260509202803 64 200 2.0 3.0 0.00 0.00 0.00 66 1015.5
20260509202403 64 195 1.0 2.0 0.00 0.00 0.00 67 1015.5
20260509202003 64 177 0.0 2.0 0.00 0.00 0.00 68 1015.6
20260509201603 63 0 0.0 0.0 0.00 0.00 0.00 70 1015.6
20260509201203 63 0 0.0 0.0 0.00 0.00 0.00 70 1015.4
20260509200803 64 0 0.0 0.0 0.00 0.00 0.00 70 1015.4
20260509200616 64 0 0.0 0.0 0.00 0.00 0.00 70 1015.5
20260509200004 64 0 0.0 0.0 0.00 0.00 0.00 70 1015.4
20260509195603 64 0 0.0 0.0 0.00 0.00 0.00 69 1015.3
20260509195414 64 0 0.0 0.0 0.00 0.00 0.00 69 1015.3
20260509194803 64 0 0.0 0.0 0.00 0.00 0.00 69 1015.3
20260509194403 64 0 0.0 0.0 0.00 0.00 0.00 69 1015.4
20260509194003 65 162 0.0 1.0 0.00 0.00 0.00 69 1015.3
20260509193603 65 158 0.0 1.0 0.00 0.00 0.00 68 1015.2
20260509193203 65 153 1.0 2.0 0.00 0.00 0.00 68 1015.2
20260509193016 65 152 1.0 2.0 0.00 0.00 0.00 68 1015.2
20260509192403 66 148 1.0 2.0 0.00 0.00 0.00 67 1015.1
20260509192003 66 155 1.0 3.0 0.00 0.00 0.00 66 1014.9
20260509191603 66 158 1.0 3.0 0.00 0.00 0.00 66 1015.0
20260509191203 66 156 2.0 3.0 0.00 0.00 0.00 67 1014.9
20260509190803 67 156 2.0 4.0 0.00 0.00 0.00 66 1014.9
20260509190403 67 155 2.0 4.0 0.00 0.00 0.00 65 1014.9
20260509190003 67 154 3.0 4.0 0.00 0.00 0.00 65 1014.8
20260509185603 68 150 3.0 6.0 0.00 0.00 0.00 65 1014.9
20260509185203 68 150 3.0 6.0 0.00 0.00 0.00 64 1014.7
20260509184803 68 152 3.0 4.0 0.00 0.00 0.00 64 1014.8
20260509184403 69 154 3.0 6.0 0.00 0.00 0.00 64 1014.7
20260509184003 69 150 3.0 6.0 0.00 0.00 0.00 63 1014.7
20260509183603 69 154 2.0 4.0 0.00 0.00 0.00 64 1014.7
20260509183203 69 155 2.0 4.0 0.00 0.00 0.00 65 1014.5
20260509182803 69 164 1.0 3.0 0.00 0.00 0.00 65 1014.5
20260509182403 69 162 0.0 2.0 0.00 0.00 0.00 65 1014.5
20260509182003 70 151 1.0 3.0 0.00 0.00 0.00 64 1014.4
20260509181603 70 146 1.0 3.0 0.00 0.00 0.00 64 1014.5
20260509181203 70 125 0.0 2.0 0.00 0.00 0.00 64 1014.4
20260509180803 71 114 0.0 2.0 0.00 0.00 0.00 64 1014.5
20260509180403 71 120 0.0 2.0 0.00 0.00 0.00 63 1014.3
20260509180003 71 109 0.0 2.0 0.00 0.00 0.00 63 1014.5
20260509175603 71 107 0.0 2.0 0.00 0.00 0.00 62 1014.4
20260509175203 72 147 1.0 2.0 0.00 0.00 0.00 61 1014.5
20260509174803 72 156 1.0 4.0 0.00 0.00 0.00 61 1014.6
20260509174403 72 160 2.0 4.0 0.00 0.00 0.00 60 1014.4
20260509174003 73 158 2.0 4.0 0.00 0.00 0.00 59 1014.5
20260509173603 73 153 2.0 4.0 0.00 0.00 0.00 58 1014.4
20260509173417 73 151 3.0 7.0 0.00 0.00 0.00 58 1014.5
20260509172803 74 149 3.0 7.0 0.00 0.00 0.00 55 1014.5
20260509172403 74 150 3.0 6.0 0.00 0.00 0.00 53 1014.6
20260509172003 75 155 4.0 7.0 0.00 0.00 0.00 52 1014.5
20260509171603 75 158 3.0 7.0 0.00 0.00 0.00 52 1014.5
20260509171203 75 155 3.0 7.0 0.00 0.00 0.00 52 1014.3
20260509170803 75 150 3.0 7.0 0.00 0.00 0.00 53 1014.4
20260509170613 75 153 3.0 7.0 0.00 0.00 0.00 53 1014.3
20260509170003 75 154 3.0 6.0 0.00 0.00 0.00 52 1014.5
20260509165603 75 156 4.0 6.0 0.00 0.00 0.00 51 1014.4
20260509165203 76 162 4.0 7.0 0.00 0.00 0.00 52 1014.4
20260509164803 76 165 5.0 9.0 0.00 0.00 0.00 51 1014.3
20260509164403 76 172 5.0 9.0 0.00 0.00 0.00 50 1014.5
20260509164003 76 173 4.0 9.0 0.00 0.00 0.00 51 1014.5
20260509163603 77 171 3.0 7.0 0.00 0.00 0.00 45 1014.5
20260509163203 77 179 4.0 7.0 0.00 0.00 0.00 43 1014.6
20260509162803 77 181 3.0 4.0 0.00 0.00 0.00 45 1014.5
20260509162403 77 167 3.0 6.0 0.00 0.00 0.00 47 1014.6
20260509162216 77 171 3.0 6.0 0.00 0.00 0.00 45 1014.4
20260509161816 77 174 4.0 6.0 0.00 0.00 0.00 46 1014.6
20260509161203 78 174 4.0 8.0 0.00 0.00 0.00 44 1014.5
20260509160803 78 193 4.0 8.0 0.00 0.00 0.00 45 1014.7
20260509160614 78 193 4.0 8.0 0.00 0.00 0.00 44 1014.7
20260509160003 78 181 4.0 7.0 0.00 0.00 0.00 45 1014.7
20260509155817 78 171 5.0 9.0 0.00 0.00 0.00 46 1014.7
20260509155417 77 171 5.0 9.0 0.00 0.00 0.00 45 1014.7
20260509154803 78 170 3.0 7.0 0.00 0.00 0.00 44 1014.9
20260509154616 78 165 3.0 5.0 0.00 0.00 0.00 44 1014.8
20260509154003 78 160 4.0 8.0 0.00 0.00 0.00 44 1014.6
20260509153603 78 156 4.0 8.0 0.00 0.00 0.00 44 1014.6
20260509153203 78 162 3.0 6.0 0.00 0.00 0.00 43 1014.5
20260509152803 78 172 3.0 9.0 0.00 0.00 0.00 42 1014.7
20260509152403 78 177 3.0 9.0 0.00 0.00 0.00 43 1014.8
20260509152217 78 177 3.0 9.0 0.00 0.00 0.00 43 1014.7
20260509151603 78 212 4.0 6.0 0.00 0.00 0.00 42 1014.7
20260509151203 78 199 5.0 11.0 0.00 0.00 0.00 44 1014.7
20260509150803 78 189 5.0 11.0 0.00 0.00 0.00 44 1014.9
20260509150403 78 189 4.0 11.0 0.00 0.00 0.00 44 1015.0
20260509150004 78 174 4.0 9.0 0.00 0.00 0.00 44 1015.0
20260509145813 78 168 4.0 9.0 0.00 0.00 0.00 44 1014.9